SCP
-0 -0 -0 0 0 -0 -0 0 -0 -0 -0 -0 -0 -0 -0 -0 -0 -0 -0 0 0 0 -0 -0 -0 0 0 0 0 0 0 0 0 0 0 -0 -0 -0 -0 -0 -0 0 -0 -0 -0 -0 -0 -0 -0
-0 -0 0 -0 0 0 0 0 -0 0 0 -0 -0 -0 -0 -0 0 -0 0 0 0 0 0 0 -0 0 0 0 0 0 0 -0 -0 0 0 0 -0 -0 -0 -0 0 0 -0 -0 -0 -0 -0 -0 -0
-0 -0 0 0 0 -0 -0 -0 -0 -0 -0 -0 -0 -0 -0 -0 -0 0 0 0 -0 0 0 0 0 0 0 0 0 0 0 -0 0 -0 -0 -0 0 0 0 0 0 0 -0 -0 0 -0 -0 -0 -0
-0 0 0 0 -0 0 0 0 -0 -0 -0 -0 -0 -0 -0 -0 -0 0 0 -0 0 0 0 0 0 0 0 0 0 0 0 -0 0 -0 -0 -0 -0 0 0 -0 0 -0 0 0 0 0 0 0 0
0 0 0 -0 0 -0 -0 -0 -0 -0 -0 -0 -0 -0 -0 -0 -0 -0 0 0 0 0 0 0 0 0 0 0 0 0 -0 0 0 -0 -0 0 0 -0 0 0 0 0 0 0 0 0 0 0 0
0 0 0 0 -0 -0 -0 -0 -0 -0 -0 -0 -0 -0 -0 -0 -0 -0 0 0 0 0 0 0 0 0 0 0 0 0 -0 -0 0 0 0 0 0 0 0 0 0 0 0 0 0 0 0 0 0
-0 -0 -0 0 -0 -0 0 -0 0 -0 -0 -0 -0 -0 -0 0 -0 -0 0 0 0 0 0 0 0 0 0 0 0 -0 0 0 0 0 0 0 0 0 0 0 0 0 0 0 0 0 0 0 0
-0 -0 -0 -0 0 0 -0 -0 0 -0 -0 -0 -0 0 -0 -0 -0 0 0 0 0 0 0 0 -0 -0 -0 -0 -0 0 0 0 0 0 0 0 0 0 0 0 0 0 0 0 0 0 0 0 0
-0 -0 -0 -0 0 -0 0 0 -0 -0 -0 -0 0 -0 -0 -0 -0 0 0 0 -0 -0 0 0 0 -0 -0 -0 0 0 0 0 0 0 0 0 0 0 0 0 0 0 0 0 0 0 0 0 0
-0 0 0 -0 0 -0 -0 -0 -0 0 -0 -0 -0 -0 -0 -0 -0 0 0 0 0 -0 0 0 0 -0 -0 -0 0 0 0 0 0 0 0 0 0 0 0 0 0 0 0 0 0 0 0 0 0
-0 0 -0 0 -0 -0 -0 0 -0 -0 -0 -0 -0 -0 -0 -0 -0 -0 0 0 -0 -0 0 -0 -0 -0 -0 0 -0 0 0 0 0 -0 0 0 -0 0 0 0 0 0 0 0 0 0 -0 0 0
-0 -0 -0 -0 -0 0 0 -0 -0 -0 -0 -0 -0 -0 -0 -0 -0 -0 -0 -0 0 0 0 -0 0 -0 0 0 -0 0 0 0 0 0 0 0 0 0 0 -0 -0 0 -0 0 0 0 0 0 -0
-0 -0 -0 -0 0 -0 -0 -0 -0 -0 -0 -0 -0 -0 -0 -0 -0 -0 -0 0 -0 -0 -0 0 0 -0 0 0 -0 0 0 0 0 0 0 0 -0 0 -0 0 0 0 0 0 0 0 0 0 0
-0 0 -0 0 0 -0 -0 -0 -0 -0 -0 -0 -0 -0 -0 -0 -0 -0 0 0 -0 -0 -0 0 0 0 0 0 1 0 0 -0 0 -0 0 0 -0 -0 0 0 0 0 0 -0 0 0 0 0 0
-0 0 -0 0 0 -0 -0 0 0 0 -0 -0 -0 -0 -0 -0 -0 0 -0 -0 0 -0 0 0 0 0 0 0 0 0 0 -0 -0 0 -0 0 -0 -0 -0 0 0 0 0 0 0 0 0 -0 -0
0 0 0 0 -0 -0 -0 0 0 -0 -0 -0 -0 -0 -0 -0 -0 -0 -0 -0 0 0 0 0 -0 0 -0 -0 0 0 0 0 -0 -0 -0 -0 0 -0 0 -0 0 0 0 0 0 0 0 0 0
0 -0 0 -0 -0 0 -0 0 -0 -0 -0 -0 -0 -0 -0 -0 0 -0 -0 0 0 0 0 0 -0 0 0 -0 -0 -0 0 -0 -0 -0 0 -0 -0 0 0 -0 0 -0 0 -0 0 0 0 0 0
0 0 0 0 -0 0 0 0 -0 0 0 -0 -0 -0 -0 -0 -0 -0 -0 0 0 0 0 0 0 0 0 -0 -0 -0 0 -0 -0 -0 -0 -0 -0 -0 -0 -0 0 0 0 0 0 0 0 0 -0
0 -0 0 -0 -0 -0 0 0 -0 0 -0 0 -0 -0 -0 -0 -0 -0 -0 0 0 0 0 0 0 0 0 0 -0 0 -0 -0 -0 -0 -0 -0 0 -0 0 -0 0 0 0 0 0 0 0 0 0
0 0 -0 -0 0 0 0 0 -0 -0 -0 0 -0 -0 -0 -0 -0 -0 -0 0 0 0 0 0 0 0 1 0 0 -0 -0 -0 0 -0 -0 0 -0 -0 -0 -0 0 0 0 0 0 0 -0 -0 0
-0 -0 0 0 0 0 0 0 -0 -0 -0 0 -0 -0 -0 -0 -0 -0 -0 0 0 0 0 0 0 1 1 0 0 0 -0 -0 0 -0 -0 0 0 -0 -0 -0 0 -0 0 0 0 0 0 0 0
-0 -0 0 0 0 0 0 0 -0 -0 0 0 0 0 -0 -0 -0 -0 -0 0 0 0 0 0 0 1 1 0 0 0 0 -0 -0 0 0 0 -0 -0 -0 -0 -0 -0 -0 -0 -0 -0 0 0 0
-0 0 0 0 0 0 0 0 0 0 -0 0 0 0 -0 -0 -0 -0 -0 0 0 0 0 0 1 1 1 0 0 0 0 -0 -0 -0 0 0 -0 -0 -0 -0 -0 -0 -0 -0 -0 -0 0 -0 -0
0 0 0 0 0 0 0 0 -0 -0 0 -0 0 -0 -0 -0 -0 -0 -0 0 0 0 0 0 0 0 0 0 0 0 0 0 -0 -0 -0 0 0 -0 -0 -0 -0 -0 -0 -0 -0 -0 -0 -0 -0
0 0 0 0 0 -0 0 0 0 -0 0 0 -0 0 -0 -0 -0 -0 -0 0 0 0 -0 0 0 0 0 0 0 0 0 -0 -0 -0 -0 0 -0 -0 -0 -0 -0 -0 -0 0 -0 -0 -0 -0 0
-0 -0 -0 0 0 -0 0 0 -0 -0 0 -0 -0 0 0 0 0 -0 -0 0 0 0 -0 -0 -0 -0 -0 -0 -0 -0 -0 0 -0 0 0 -0 0 0 -0 -1 -0 -0 -0 -0 0 0 0 -0 0
0 -0 -0 -0 -0 0 0 0 0 0 0 0 0 0 0 0 0 -0 -0 -0 0 0 -0 -0 -1 -0 -0 -0 -0 -0 -0 -0 -0 -0 0 -0 0 -0 1 -1 -1 -1 -0 0 0 -0 0 0 -0
0 0 0 0 -0 -0 0 -0 0 -0 0 0 -0 0 0 0 0 -0 -0 -0 0 0 0 -0 -0 -0 -0 -0 -0 -1 -1 -1 -0 0 -0 0 0 0 1 -0 -1 -1 -0 0 0 0 -0 0 0
0 0 0 0 0 0 0 0 -0 -0 -0 0 0 0 0 0 0 -0 -0 -0 0 0 0 0 0 0 -0 -0 -0 -1 -1 -1 -0 -0 0 0 0 0 -0 2 1 0 -0 -0 0 0 -0 0 0
0 0 0 0 0 0 0 0 0 0 0 0 0 0 0 0 0 0 -0 -0 0 0 0 0 0 0 -0 -0 -0 -0 -0 -0 -1 -1 -0 -0 0 0 0 0 1 1 0 -0 -0 -0 0 0 0
Wind_Speed_500mb
20 23 14 9 5 10 5 12 9 3 19 42 24 29 28 25 3 11 61 70 67 53 46 49 44 43 41 39 36 30 26 25 28 26 26 25 24 23 25 26 26 24 23 23 22 22 23 20 21
23 24 19 8 5 7 8 24 6 22 27 48 45 39 28 23 22 56 75 81 66 42 47 46 43 40 40 38 35 31 27 28 25 24 24 23 22 21 21 23 24 25 24 23 23 24 24 23 22
21 19 6 7 4 5 7 21 22 30 33 34 20 29 17 20 45 49 92 76 53 40 36 45 43 40 41 38 34 30 28 27 24 22 23 24 24 24 25 25 24 25 25 24 23 23 20 21 23
18 11 15 5 19 25 13 16 29 29 47 52 39 24 35 37 42 63 83 61 59 44 40 46 44 40 40 36 31 30 28 24 22 22 23 23 23 23 24 27 26 27 26 24 23 20 19 18 18
14 12 7 2 13 17 39 34 20 26 43 42 45 33 30 45 46 71 63 59 53 46 43 48 43 41 38 34 30 29 25 23 21 21 22 22 22 25 27 30 30 29 27 25 23 20 17 15 14
13 12 7 10 15 32 15 26 40 42 51 44 49 53 20 47 70 57 61 54 50 51 46 48 43 39 36 34 31 27 24 21 20 21 22 23 25 27 27 29 31 30 28 26 23 22 21 22 21
29 19 17 21 17 29 12 30 16 28 29 46 49 29 37 61 77 66 65 55 54 47 46 45 44 39 36 33 30 26 22 20 21 21 22 25 27 26 24 24 27 28 26 25 25 22 19 19 24
40 23 48 25 19 8 9 24 23 40 40 45 56 22 44 82 72 60 55 52 61 52 45 40 43 37 35 33 29 25 22 20 21 25 31 34 32 27 21 21 21 21 21 23 22 19 21 19 26
40 19 23 25 14 25 37 31 43 40 48 35 21 69 82 83 68 64 58 65 58 52 46 40 40 31 28 29 28 25 22 23 24 29 29 29 23 20 13 12 12 16 19 19 21 15 19 26 26
30 16 15 42 7 7 21 28 32 26 35 39 63 75 74 75 65 69 56 61 52 58 48 42 38 33 25 24 24 24 23 20 18 18 4 13 20 16 10 15 13 14 15 20 10 13 19 25 19
49 4 23 16 8 43 20 9 31 34 28 62 72 78 74 77 68 59 57 54 55 56 52 47 44 35 30 34 16 13 15 6 4 19 18 8 19 10 3 8 12 9 21 10 7 9 13 18 13
32 29 50 45 34 18 6 38 32 33 44 54 64 74 78 76 64 60 60 55 52 57 56 49 54 39 34 34 19 17 10 16 13 6 11 10 10 2 5 5 7 4 15 10 13 19 14 10 19
41 49 70 75 71 55 73 33 19 40 49 53 63 69 71 72 66 62 56 66 54 59 55 55 50 45 41 28 28 22 21 19 22 13 6 9 16 2 5 6 9 3 4 1 9 5 9 9 12
40 44 46 29 16 59 47 39 22 30 53 55 64 68 67 67 70 67 65 64 52 57 52 56 48 42 48 40 31 22 27 20 17 8 14 11 6 3 4 10 8 2 5 12 4 10 8 11 14
49 28 34 30 32 25 39 21 24 4 52 57 62 66 65 67 67 72 82 78 63 58 58 54 51 41 52 45 36 32 26 17 23 15 21 18 20 10 6 7 6 3 6 11 10 6 10 11 8
38 33 30 41 44 47 43 32 24 46 53 51 57 64 66 65 64 74 73 72 67 62 62 52 43 43 42 48 39 37 25 21 20 18 22 13 16 17 10 6 8 4 4 11 4 8 11 10 4
38 35 46 45 35 37 38 36 43 26 44 52 55 62 63 63 65 65 63 62 64 59 65 60 49 50 42 41 37 35 27 31 24 21 20 22 15 16 11 8 11 5 2 17 9 6 7 3 3
38 42 40 43 36 48 44 32 37 46 74 75 59 60 64 66 67 66 62 62 61 61 61 63 55 50 47 39 38 31 33 35 29 24 21 30 23 21 12 6 7 4 4 4 9 4 8 8 8
40 44 47 43 42 48 41 41 48 33 17 46 66 70 67 67 66 65 63 63 64 64 66 65 60 58 55 48 45 43 38 35 30 30 26 27 26 18 21 16 15 14 8 8 6 9 7 4 8
54 51 46 42 24 12 41 50 50 47 73 103 59 55 68 63 66 69 68 71 69 73 72 70 73 66 58 55 48 44 37 35 31 31 33 38 32 22 25 18 6 7 14 17 6 17 17 8 9
55 53 49 42 34 22 44 19 54 58 63 80 73 83 67 70 69 70 73 73 76 78 79 76 75 72 73 59 53 41 39 38 40 34 34 40 36 30 21 26 16 18 17 13 4 9 13 11 5
55 57 54 48 36 29 40 18 52 32 40 46 66 71 68 74 70 72 76 76 78 78 82 80 76 78 75 69 53 57 58 52 49 41 39 39 36 27 32 27 25 26 15 18 10 3 11 11 14
52 50 50 49 38 34 40 32 27 39 37 42 45 70 69 77 80 81 79 83 83 81 80 82 78 75 77 73 64 54 57 54 41 42 38 41 41 38 32 35 29 27 24 21 14 17 17 15 14
49 44 48 46 35 33 45 35 37 32 39 39 44 59 76 76 80 80 82 78 81 78 80 79 79 78 76 75 77 67 61 58 52 44 47 44 46 42 38 37 37 32 22 32 27 30 22 24 21
48 45 29 33 34 34 43 40 27 32 45 36 42 57 62 78 80 81 83 82 84 79 81 81 81 82 79 79 77 81 72 61 59 55 49 49 45 42 42 35 43 45 39 31 27 21 20 23 28
56 51 28 48 35 35 43 41 38 43 35 54 59 71 65 65 78 84 85 86 88 89 90 87 89 87 83 82 86 78 82 77 65 65 60 53 48 41 45 38 38 33 39 33 39 38 30 27 27
53 50 47 41 42 33 37 43 47 49 45 38 29 61 70 69 68 79 83 90 91 91 92 98 96 94 86 84 88 87 81 84 83 71 68 54 49 48 35 42 41 38 34 49 46 43 37 27 28
59 43 42 34 43 43 38 44 36 45 41 51 41 38 51 72 71 80 82 86 88 95 97 100 99 97 91 86 85 91 89 84 83 79 72 71 58 49 37 44 46 42 35 46 44 48 45 41 42
42 45 50 40 33 31 30 28 33 48 50 39 38 52 46 65 74 74 80 84 90 96 94 95 98 98 96 91 88 88 93 89 83 84 81 71 71 68 56 37 49 52 43 41 55 55 49 47 47
55 56 51 24 40 32 28 21 29 22 45 36 32 60 59 53 71 73 76 84 88 86 90 96 97 97 101 97 92 90 89 91 89 86 84 79 72 66 62 65 49 56 51 42 54 61 58 50 52
Wind_Direction_500mb
165 148 143 188 245 229 240 243 178 102 77 97 109 85 90 55 235 143 149 153 146 139 144 135 138 139 144 146 147 141 127 113 109 101 95 92 93 89 87 83 86 95 100 102 100 101 88 77 69
163 163 200 267 246 18 261 172 61 144 132 85 94 100 79 65 94 131 149 152 142 143 142 143 142 144 148 146 145 137 130 119 110 103 96 98 97 91 91 88 92 96 99 100 100 92 85 76 77
171 193 248 228 215 211 274 113 150 112 93 105 105 68 60 98 117 132 144 144 133 148 155 147 147 145 147 144 142 136 127 120 113 102 95 94 92 96 92 92 92 96 96 99 100 98 89 83 80
191 214 257 280 302 270 221 164 117 106 104 106 103 75 93 126 123 141 142 137 150 155 156 150 148 149 148 145 142 132 126 124 116 103 99 99 98 92 91 97 98 96 98 96 99 102 93 85 81
196 257 282 257 290 270 253 112 124 133 106 114 109 116 106 130 134 135 149 142 155 148 162 152 153 151 150 146 142 134 134 125 118 108 103 104 102 96 100 102 102 99 96 97 102 100 92 82 84
205 244 64 339 255 250 163 133 110 98 113 112 109 119 111 146 147 141 142 148 148 150 150 154 156 153 152 145 140 143 134 127 119 106 106 103 101 100 103 101 102 100 97 98 98 95 91 79 81
229 262 254 202 256 265 123 88 110 119 119 116 132 118 132 142 147 148 150 148 148 151 158 157 156 156 155 150 148 141 138 129 120 113 108 101 94 92 99 103 106 101 97 100 97 90 86 84 79
249 265 280 160 232 255 318 116 119 105 99 129 137 138 151 149 150 150 151 148 156 156 157 154 159 153 158 153 148 147 142 130 124 120 115 106 99 84 86 102 106 100 91 95 87 94 87 84 88
245 260 283 296 125 160 245 117 82 103 132 150 129 142 147 150 149 154 157 157 150 158 158 160 158 164 157 157 152 151 134 132 135 135 119 111 106 90 79 89 108 92 81 79 72 79 89 97 103
233 273 348 303 3 297 326 123 124 136 125 120 118 133 147 155 156 160 161 164 170 159 163 167 162 163 159 160 158 145 131 129 138 96 22 126 104 101 109 87 97 94 82 97 115 55 105 89 109
232 103 260 252 258 129 278 135 167 138 137 128 135 145 153 158 162 162 166 168 164 160 167 169 170 164 156 186 170 129 136 138 223 137 170 126 130 162 176 96 81 56 50 88 119 71 108 70 59
219 130 252 249 223 134 48 283 127 171 137 137 147 153 156 160 165 166 168 171 172 168 174 171 176 168 174 187 165 164 184 177 225 170 139 115 117 177 140 139 189 137 205 52 37 57 97 121 102
229 179 214 247 234 154 171 199 241 119 125 135 149 158 161 165 168 172 172 175 176 177 179 173 181 181 178 168 173 179 185 182 208 227 189 140 254 171 48 51 158 159 57 183 61 88 133 102 99
231 214 227 243 218 166 171 168 125 149 136 141 155 163 164 169 172 174 175 182 183 181 181 178 185 192 187 176 188 181 182 184 188 212 250 195 148 232 171 188 145 174 81 64 72 103 162 90 74
230 254 233 241 225 205 226 81 123 5 139 149 161 167 171 172 177 185 182 179 179 184 181 185 184 203 203 188 185 182 193 190 199 192 231 246 185 220 203 82 91 87 0 80 63 67 29 105 103
239 233 258 218 213 236 220 155 281 162 150 157 166 172 173 179 182 188 181 178 181 181 186 185 188 200 208 197 191 185 184 199 206 207 244 248 206 189 158 207 156 78 140 143 106 46 134 71 51
229 228 229 232 224 232 221 141 184 251 316 164 170 176 178 182 187 184 184 181 181 183 188 188 192 199 211 198 199 191 191 204 211 213 227 253 249 195 198 235 271 89 31 109 99 162 107 121 87
216 225 237 229 191 228 230 148 165 150 247 270 175 179 181 185 189 185 189 187 187 188 190 190 195 195 209 209 195 212 190 217 198 215 212 245 257 243 214 229 257 165 106 124 164 180 118 87 273
240 226 227 243 226 219 226 145 152 169 273 258 181 177 185 187 188 187 191 190 189 189 193 196 193 193 205 204 207 195 207 215 216 208 209 240 250 248 232 203 238 236 229 222 274 176 72 144 344
235 248 228 238 193 112 272 159 162 158 188 224 189 195 178 183 186 188 190 190 191 191 196 200 195 197 201 208 209 201 205 213 227 217 215 224 243 239 242 230 246 210 228 241 212 196 212 183 181
229 237 247 227 146 225 230 284 176 196 198 204 174 189 182 179 187 188 188 194 193 192 197 203 201 199 203 207 201 203 205 209 223 221 221 228 231 231 246 233 210 230 221 248 226 170 169 171 178
222 227 246 258 174 200 215 193 241 222 198 181 183 177 183 180 188 188 191 196 195 197 200 206 209 203 208 201 204 203 204 211 207 224 221 228 237 233 229 241 222 227 215 236 229 230 191 195 215
231 224 232 253 262 250 192 221 226 205 219 188 184 179 184 185 184 188 194 196 198 198 197 205 213 214 211 209 198 212 212 211 219 215 224 221 233 242 226 230 233 246 217 212 217 222 211 194 179
222 229 225 235 250 248 244 195 231 221 200 209 187 196 189 187 186 189 191 196 198 199 199 199 210 217 217 217 209 204 218 213 211 219 215 222 226 236 239 223 232 236 237 198 213 238 239 191 200
217 218 220 216 218 236 237 246 249 233 182 216 193 192 201 185 184 185 185 190 193 199 198 200 206 217 220 219 220 214 213 222 210 213 218 217 225 225 236 238 224 229 236 218 229 235 238 210 207
212 215 219 216 218 220 233 232 233 258 246 205 196 186 196 195 181 182 185 187 192 196 199 200 205 217 223 220 222 220 219 222 219 213 214 218 216 225 232 237 235 233 234 232 213 227 233 235 218
202 215 221 231 223 228 225 223 247 223 244 250 243 192 186 191 187 181 184 186 190 195 199 200 206 218 222 223 221 225 221 222 229 222 215 214 225 218 234 236 230 231 237 233 218 218 230 230 237
226 199 216 229 235 232 225 231 216 217 223 215 223 230 202 185 187 182 184 186 190 197 201 203 206 216 222 223 223 225 229 226 227 229 224 215 211 215 222 238 237 242 252 223 224 224 224 229 235
212 223 207 225 232 239 250 247 231 199 202 210 214 195 224 190 184 187 184 187 194 199 197 203 205 213 222 226 227 226 227 230 227 228 229 224 220 217 210 222 239 240 249 232 218 224 228 233 232
211 218 216 218 212 242 259 259 20 190 180 190 226 188 193 219 183 183 183 186 195 195 198 201 206 208 220 227 229 231 229 229 231 228 228 231 229 229 226 219 226 240 247 246 232 230 226 225 244
Wind_Speed_850mb
20 23 14 9 5 10 5 12 9 3 19 42 24 29 28 25 3 11 61 70 67 53 46 49 44 43 41 39 36 30 26 25 28 26 26 25 24 23 25 26 26 24 23 23 22 22 23 20 21
23 24 19 8 5 7 8 24 6 22 27 48 45 39 28 23 22 56 75 81 66 42 47 46 43 40 40 38 35 31 27 28 25 24 24 23 22 21 21 23 24 25 24 23 23 24 24 23 22
21 19 6 7 4 5 7 21 22 30 33 34 20 29 17 20 45 49 92 76 53 40 36 45 43 40 41 38 34 30 28 27 24 22 23 24 24 24 25 25 24 25 25 24 23 23 20 21 23
18 11 15 5 19 25 13 16 29 29 47 52 39 24 35 37 42 63 83 61 59 44 40 46 44 40 40 36 31 30 28 24 22 22 23 23 23 23 24 27 26 27 26 24 23 20 19 18 18
14 12 7 2 13 17 39 34 20 26 43 42 45 33 30 45 46 71 63 59 53 46 43 48 43 41 38 34 30 29 25 23 21 21 22 22 22 25 27 30 30 29 27 25 23 20 17 15 14
13 12 7 10 15 32 15 26 40 42 51 44 49 53 20 47 70 57 61 54 50 51 46 48 43 39 36 34 31 27 24 21 20 21 22 23 25 27 27 29 31 30 28 26 23 22 21 22 21
29 19 17 21 17 29 12 30 16 28 29 46 49 29 37 61 77 66 65 55 54 47 46 45 44 39 36 33 30 26 22 20 21 21 22 25 27 26 24 24 27 28 26 25 25 22 19 19 24
40 23 48 25 19 8 9 24 23 40 40 45 56 22 44 82 72 60 55 52 61 52 45 40 43 37 35 33 29 25 22 20 21 25 31 34 32 27 21 21 21 21 21 23 22 19 21 19 26
40 19 23 25 14 25 37 31 43 40 48 35 21 69 82 83 68 64 58 65 58 52 46 40 40 31 28 29 28 25 22 23 24 29 29 29 23 20 13 12 12 16 19 19 21 15 19 26 26
30 16 15 42 7 7 21 28 32 26 35 39 63 75 74 75 65 69 56 61 52 58 48 42 38 33 25 24 24 24 23 20 18 18 4 13 20 16 10 15 13 14 15 20 10 13 19 25 19
49 4 23 16 8 43 20 9 31 34 28 62 72 78 74 77 68 59 57 54 55 56 52 47 44 35 30 34 16 13 15 6 4 19 18 8 19 10 3 8 12 9 21 10 7 9 13 18 13
32 29 50 45 34 18 6 38 32 33 44 54 64 74 78 76 64 60 60 55 52 57 56 49 54 39 34 34 19 17 10 16 13 6 11 10 10 2 5 5 7 4 15 10 13 19 14 10 19
41 49 70 75 71 55 73 33 19 40 49 53 63 69 71 72 66 62 56 66 54 59 55 55 50 45 41 28 28 22 21 19 22 13 6 9 16 2 5 6 9 3 4 1 9 5 9 9 12
40 44 46 29 16 59 47 39 22 30 53 55 64 68 67 67 70 67 65 64 52 57 52 56 48 42 48 40 31 22 27 20 17 8 14 11 6 3 4 10 8 2 5 12 4 10 8 11 14
49 28 34 30 32 25 39 21 24 4 52 57 62 66 65 67 67 72 82 78 63 58 58 54 51 41 52 45 36 32 26 17 23 15 21 18 20 10 6 7 6 3 6 11 10 6 10 11 8
38 33 30 41 44 47 43 32 24 46 53 51 57 64 66 65 64 74 73 72 67 62 62 52 43 43 42 48 39 37 25 21 20 18 22 13 16 17 10 6 8 4 4 11 4 8 11 10 4
38 35 46 45 35 37 38 36 43 26 44 52 55 62 63 63 65 65 63 62 64 59 65 60 49 50 42 41 37 35 27 31 24 21 20 22 15 16 11 8 11 5 2 17 9 6 7 3 3
38 42 40 43 36 48 44 32 37 46 74 75 59 60 64 66 67 66 62 62 61 61 61 63 55 50 47 39 38 31 33 35 29 24 21 30 23 21 12 6 7 4 4 4 9 4 8 8 8
40 44 47 43 42 48 41 41 48 33 17 46 66 70 67 67 66 65 63 63 64 64 66 65 60 58 55 48 45 43 38 35 30 30 26 27 26 18 21 16 15 14 8 8 6 9 7 4 8
54 51 46 42 24 12 41 50 50 47 73 103 59 55 68 63 66 69 68 71 69 73 72 70 73 66 58 55 48 44 37 35 31 31 33 38 32 22 25 18 6 7 14 17 6 17 17 8 9
55 53 49 42 34 22 44 19 54 58 63 80 73 83 67 70 69 70 73 73 76 78 79 76 75 72 73 59 53 41 39 38 40 34 34 40 36 30 21 26 16 18 17 13 4 9 13 11 5
55 57 54 48 36 29 40 18 52 32 40 46 66 71 68 74 70 72 76 76 78 78 82 80 76 78 75 69 53 57 58 52 49 41 39 39 36 27 32 27 25 26 15 18 10 3 11 11 14
52 50 50 49 38 34 40 32 27 39 37 42 45 70 69 77 80 81 79 83 83 81 80 82 78 75 77 73 64 54 57 54 41 42 38 41 41 38 32 35 29 27 24 21 14 17 17 15 14
49 44 48 46 35 33 45 35 37 32 39 39 44 59 76 76 80 80 82 78 81 78 80 79 79 78 76 75 77 67 61 58 52 44 47 44 46 42 38 37 37 32 22 32 27 30 22 24 21
48 45 29 33 34 34 43 40 27 32 45 36 42 57 62 78 80 81 83 82 84 79 81 81 81 82 79 79 77 81 72 61 59 55 49 49 45 42 42 35 43 45 39 31 27 21 20 23 28
56 51 28 48 35 35 43 41 38 43 35 54 59 71 65 65 78 84 85 86 88 89 90 87 89 87 83 82 86 78 82 77 65 65 60 53 48 41 45 38 38 33 39 33 39 38 30 27 27
53 50 47 41 42 33 37 43 47 49 45 38 29 61 70 69 68 79 83 90 91 91 92 98 96 94 86 84 88 87 81 84 83 71 68 54 49 48 35 42 41 38 34 49 46 43 37 27 28
59 43 42 34 43 43 38 44 36 45 41 51 41 38 51 72 71 80 82 86 88 95 97 100 99 97 91 86 85 91 89 84 83 79 72 71 58 49 37 44 46 42 35 46 44 48 45 41 42
42 45 50 40 33 31 30 28 33 48 50 39 38 52 46 65 74 74 80 84 90 96 94 95 98 98 96 91 88 88 93 89 83 84 81 71 71 68 56 37 49 52 43 41 55 55 49 47 47
55 56 51 24 40 32 28 21 29 22 45 36 32 60 59 53 71 73 76 84 88 86 90 96 97 97 101 97 92 90 89 91 89 86 84 79 72 66 62 65 49 56 51 42 54 61 58 50 52
Wind_Direction_850mb
165 148 143 188 245 229 240 243 178 102 77 97 109 85 90 55 235 143 149 153 146 139 144 135 138 139 144 146 147 141 127 113 109 101 95 92 93 89 87 83 86 95 100 102 100 101 88 77 69
163 163 200 267 246 18 261 172 61 144 132 85 94 100 79 65 94 131 149 152 142 143 142 143 142 144 148 146 145 137 130 119 110 103 96 98 97 91 91 88 92 96 99 100 100 92 85 76 77
171 193 248 228 215 211 274 113 150 112 93 105 105 68 60 98 117 132 144 144 133 148 155 147 147 145 147 144 142 136 127 120 113 102 95 94 92 96 92 92 92 96 96 99 100 98 89 83 80
191 214 257 280 302 270 221 164 117 106 104 106 103 75 93 126 123 141 142 137 150 155 156 150 148 149 148 145 142 132 126 124 116 103 99 99 98 92 91 97 98 96 98 96 99 102 93 85 81
196 257 282 257 290 270 253 112 124 133 106 114 109 116 106 130 134 135 149 142 155 148 162 152 153 151 150 146 142 134 134 125 118 108 103 104 102 96 100 102 102 99 96 97 102 100 92 82 84
205 244 64 339 255 250 163 133 110 98 113 112 109 119 111 146 147 141 142 148 148 150 150 154 156 153 152 145 140 143 134 127 119 106 106 103 101 100 103 101 102 100 97 98 98 95 91 79 81
229 262 254 202 256 265 123 88 110 119 119 116 132 118 132 142 147 148 150 148 148 151 158 157 156 156 155 150 148 141 138 129 120 113 108 101 94 92 99 103 106 101 97 100 97 90 86 84 79
249 265 280 160 232 255 318 116 119 105 99 129 137 138 151 149 150 150 151 148 156 156 157 154 159 153 158 153 148 147 142 130 124 120 115 106 99 84 86 102 106 100 91 95 87 94 87 84 88
245 260 283 296 125 160 245 117 82 103 132 150 129 142 147 150 149 154 157 157 150 158 158 160 158 164 157 157 152 151 134 132 135 135 119 111 106 90 79 89 108 92 81 79 72 79 89 97 103
233 273 348 303 3 297 326 123 124 136 125 120 118 133 147 155 156 160 161 164 170 159 163 167 162 163 159 160 158 145 131 129 138 96 22 126 104 101 109 87 97 94 82 97 115 55 105 89 109
232 103 260 252 258 129 278 135 167 138 137 128 135 145 153 158 162 162 166 168 164 160 167 169 170 164 156 186 170 129 136 138 223 137 170 126 130 162 176 96 81 56 50 88 119 71 108 70 59
219 130 252 249 223 134 48 283 127 171 137 137 147 153 156 160 165 166 168 171 172 168 174 171 176 168 174 187 165 164 184 177 225 170 139 115 117 177 140 139 189 137 205 52 37 57 97 121 102
229 179 214 247 234 154 171 199 241 119 125 135 149 158 161 165 168 172 172 175 176 177 179 173 181 181 178 168 173 179 185 182 208 227 189 140 254 171 48 51 158 159 57 183 61 88 133 102 99
231 214 227 243 218 166 171 168 125 149 136 141 155 163 164 169 172 174 175 182 183 181 181 178 185 192 187 176 188 181 182 184 188 212 250 195 148 232 171 188 145 174 81 64 72 103 162 90 74
230 254 233 241 225 205 226 81 123 5 139 149 161 167 171 172 177 185 182 179 179 184 181 185 184 203 203 188 185 182 193 190 199 192 231 246 185 220 203 82 91 87 0 80 63 67 29 105 103
239 233 258 218 213 236 220 155 281 162 150 157 166 172 173 179 182 188 181 178 181 181 186 185 188 200 208 197 191 185 184 199 206 207 244 248 206 189 158 207 156 78 140 143 106 46 134 71 51
229 228 229 232 224 232 221 141 184 251 316 164 170 176 178 182 187 184 184 181 181 183 188 188 192 199 211 198 199 191 191 204 211 213 227 253 249 195 198 235 271 89 31 109 99 162 107 121 87
216 225 237 229 191 228 230 148 165 150 247 270 175 179 181 185 189 185 189 187 187 188 190 190 195 195 209 209 195 212 190 217 198 215 212 245 257 243 214 229 257 165 106 124 164 180 118 87 273
240 226 227 243 226 219 226 145 152 169 273 258 181 177 185 187 188 187 191 190 189 189 193 196 193 193 205 204 207 195 207 215 216 208 209 240 250 248 232 203 238 236 229 222 274 176 72 144 344
235 248 228 238 193 112 272 159 162 158 188 224 189 195 178 183 186 188 190 190 191 191 196 200 195 197 201 208 209 201 205 213 227 217 215 224 243 239 242 230 246 210 228 241 212 196 212 183 181
229 237 247 227 146 225 230 284 176 196 198 204 174 189 182 179 187 188 188 194 193 192 197 203 201 199 203 207 201 203 205 209 223 221 221 228 231 231 246 233 210 230 221 248 226 170 169 171 178
222 227 246 258 174 200 215 193 241 222 198 181 183 177 183 180 188 188 191 196 195 197 200 206 209 203 208 201 204 203 204 211 207 224 221 228 237 233 229 241 222 227 215 236 229 230 191 195 215
231 224 232 253 262 250 192 221 226 205 219 188 184 179 184 185 184 188 194 196 198 198 197 205 213 214 211 209 198 212 212 211 219 215 224 221 233 242 226 230 233 246 217 212 217 222 211 194 179
222 229 225 235 250 248 244 195 231 221 200 209 187 196 189 187 186 189 191 196 198 199 199 199 210 217 217 217 209 204 218 213 211 219 215 222 226 236 239 223 232 236 237 198 213 238 239 191 200
217 218 220 216 218 236 237 246 249 233 182 216 193 192 201 185 184 185 185 190 193 199 198 200 206 217 220 219 220 214 213 222 210 213 218 217 225 225 236 238 224 229 236 218 229 235 238 210 207
212 215 219 216 218 220 233 232 233 258 246 205 196 186 196 195 181 182 185 187 192 196 199 200 205 217 223 220 222 220 219 222 219 213 214 218 216 225 232 237 235 233 234 232 213 227 233 235 218
202 215 221 231 223 228 225 223 247 223 244 250 243 192 186 191 187 181 184 186 190 195 199 200 206 218 222 223 221 225 221 222 229 222 215 214 225 218 234 236 230 231 237 233 218 218 230 230 237
226 199 216 229 235 232 225 231 216 217 223 215 223 230 202 185 187 182 184 186 190 197 201 203 206 216 222 223 223 225 229 226 227 229 224 215 211 215 222 238 237 242 252 223 224 224 224 229 235
212 223 207 225 232 239 250 247 231 199 202 210 214 195 224 190 184 187 184 187 194 199 197 203 205 213 222 226 227 226 227 230 227 228 229 224 220 217 210 222 239 240 249 232 218 224 228 233 232
211 218 216 218 212 242 259 259 20 190 180 190 226 188 193 219 183 183 183 186 195 195 198 201 206 208 220 227 229 231 229 229 231 228 228 231 229 229 226 219 226 240 247 246 232 230 226 225 244